FW4606 Weather Reports


time (UTC)temp
C
wind
direction
speed
KPH
gust
KPH
rain 1hr
cm
rain 24hr
cm
rain mn
cm
humidity
%
barometer
mb
20260504181054 16 18 3.2 14.5 0.00 0.00 0.00 45 999.2
20260504180819 17 321 3.2 11.3 0.00 0.00 0.00 46 999.1
20260504180042 17 94 3.2 16.1 0.00 0.00 0.00 47 999.1
20260504175537 17 39 3.2 16.1 0.00 0.00 0.00 46 998.9
20260504175031 17 97 3.2 14.5 0.00 0.00 0.00 47 999.0
20260504174524 17 68 4.8 16.1 0.00 0.00 0.00 42 998.7
20260504174019 17 113 4.8 16.1 0.00 0.00 0.00 43 998.6
20260504173744 17 176 4.8 17.7 0.00 0.00 0.00 46 998.8
20260504173239 17 131 4.8 17.7 0.00 0.00 0.00 40 998.7
20260504172501 17 222 4.8 14.5 0.00 0.00 0.00 45 998.7
20260504171954 17 305 6.4 19.3 0.00 0.00 0.00 45 998.7
20260504171720 17 122 6.4 17.7 0.00 0.00 0.00 43 998.5
20260504170943 16 222 8.0 17.7 0.00 0.00 0.00 44 998.6
20260504170436 16 215 8.0 14.5 0.00 0.00 0.00 45 998.7
20260504160325 16 179 4.8 20.9 0.00 0.00 0.00 46 998.1
20260504150718 16 231 4.8 12.9 0.00 0.00 0.00 48 997.6
20260504150443 16 110 3.2 8.0 0.00 0.00 0.00 51 997.7
20260504141114 15 180 3.2 9.7 0.00 0.00 0.00 51 997.5
20260504140607 14 211 1.6 12.9 0.00 0.00 0.00 54 997.5
20260504140333 14 167 3.2 12.9 0.00 0.00 0.00 53 997.5
20260504130727 14 194 3.2 11.3 0.00 0.00 0.00 55 996.8
20260504110231 15 212 8.0 17.7 0.00 0.00 0.00 45 994.8
20260504100119 14 249 4.8 16.1 0.00 0.00 0.00 43 994.9
20260504081547 13 214 3.2 8.0 0.00 0.00 0.00 45 996.9
20260504081045 13 239 3.2 8.0 0.00 0.00 0.00 45 997.0
20260504080553 13 239 1.6 11.3 0.00 0.00 0.00 45 997.1
20260504050515 12 231 1.6 6.4 0.00 0.00 0.00 51 1000.7
20260504050014 12 181 1.6 6.4 0.00 0.00 0.00 51 1000.8
20260504045744 12 235 0.0 4.8 0.00 0.00 0.00 50 1000.9
20260504045010 12 195 0.0 6.4 0.00 0.00 0.00 53 1001.0
20260504044511 12 204 0.0 6.4 0.00 0.00 0.00 51 1001.0
20260504044242 12 151 0.0 3.2 0.00 0.00 0.00 51 1001.1
20260504043506 12 153 0.0 4.8 0.00 0.00 0.00 51 1001.2
20260504043006 12 178 0.0 4.8 0.00 0.00 0.00 51 1001.3
20260504042506 12 162 0.0 1.6 0.00 0.00 0.00 51 1001.4
20260504042004 12 131 0.0 1.6 0.00 0.00 0.00 50 1001.5
20260504041502 12 131 0.0 1.6 0.00 0.00 0.00 50 1001.8
20260504041003 12 156 0.0 1.6 0.00 0.00 0.00 50 1001.9
20260504040458 12 190 0.0 1.6 0.00 0.00 0.00 49 1002.0
20260504035954 12 161 0.0 1.6 0.00 0.00 0.00 49 1002.1
20260504035454 12 170 0.0 1.6 0.00 0.00 0.00 49 1002.2
20260504034954 12 170 0.0 1.6 0.00 0.00 0.00 49 1002.3
20260504034454 12 181 0.0 1.6 0.00 0.00 0.00 48 1002.3
20260504034229 12 165 0.0 1.6 0.00 0.00 0.00 48 1002.5
20260504033453 12 165 0.0 1.6 0.00 0.00 0.00 48 1002.6
20260504032947 12 157 0.0 1.6 0.00 0.00 0.00 48 1002.7
20260504032441 12 156 0.0 0.0 0.00 0.00 0.00 47 1002.9
20260504031935 12 156 0.0 0.0 0.00 0.00 0.00 47 1002.9
20260504031431 12 157 0.0 0.0 0.00 0.00 0.00 46 1003.0
20260504031425 12 156 0.0 0.0 0.00 0.00 0.00 45 1003.0
20260504030417 13 156 0.0 0.0 0.00 0.00 0.00 45 1003.2
20260504025910 12 157 0.0 0.0 0.00 0.00 0.00 45 1003.2
20260504025405 12 157 0.0 0.0 0.00 0.00 0.00 46 1003.3
20260504024906 12 156 0.0 0.0 0.00 0.00 0.00 50 1003.3
20260504024901 12 156 0.0 0.0 0.00 0.00 0.00 46 1003.3
20260504023900 12 157 0.0 0.0 0.00 0.00 0.00 44 1003.4
20260504023641 13 156 0.0 0.0 0.00 0.00 0.00 43 1003.5
20260504023403 13 156 0.0 0.0 0.00 0.00 0.00 44 1003.5
20260504022358 13 156 0.0 0.0 0.00 0.00 0.00 43 1003.6
20260504021857 13 156 0.0 0.0 0.00 0.00 0.00 43 1003.5
20260504021628 13 156 0.0 0.0 0.00 0.00 0.00 42 1003.5
20260504021520 13 156 0.0 0.0 0.00 0.00 0.00 42 1003.5
20260504020354 13 156 0.0 0.0 0.00 0.00 0.00 41 1003.5
20260504015855 13 157 0.0 0.0 0.00 0.00 0.00 40 1003.5
20260504015625 14 157 0.0 0.0 0.00 0.00 0.00 40 1003.5
20260504014852 14 156 0.0 0.0 0.00 0.00 0.00 38 1003.5
20260504014353 14 156 0.0 0.0 0.00 0.00 0.00 38 1003.5
20260504013852 15 156 0.0 0.0 0.00 0.00 0.00 37 1003.5
20260504013352 15 156 0.0 0.0 0.00 0.00 0.00 36 1003.5
20260504013127 15 157 0.0 0.0 0.00 0.00 0.00 36 1003.5
20260504012356 16 157 0.0 0.0 0.00 0.00 0.00 35 1003.6
20260504011850 16 156 0.0 0.0 0.00 0.00 0.00 35 1003.5
20260504011344 16 156 0.0 0.0 0.00 0.00 0.00 35 1003.6
20260504010838 17 156 0.0 0.0 0.00 0.00 0.00 35 1003.6
20260504010332 17 157 0.0 1.6 0.00 0.00 0.00 35 1003.6
20260504005826 17 149 0.0 1.6 0.00 0.00 0.00 35 1003.6
20260504005320 17 152 0.0 3.2 0.00 0.00 0.00 34 1003.7
20260504004814 18 156 1.6 6.4 0.00 0.00 0.00 34 1003.7
20260504004308 18 143 3.2 6.4 0.00 0.00 0.00 33 1003.7
20260504003802 18 133 3.2 8.0 0.00 0.00 0.00 31 1003.7
20260504003256 18 218 4.8 8.0 0.00 0.00 0.00 31 1003.8
20260504002750 18 111 4.8 9.7 0.00 0.00 0.00 32 1003.9
20260504002516 18 198 4.8 9.7 0.00 0.00 0.00 31 1003.9
20260504002011 19 173 4.8 9.7 0.00 0.00 0.00 31 1003.9
20260504001232 19 163 4.8 9.7 0.00 0.00 0.00 31 1003.9
20260504000726 20 143 3.2 9.7 0.00 0.00 0.00 33 1004.0
20260504000220 19 184 3.2 6.4 0.00 0.00 0.00 36 1004.0
20260503235714 19 160 3.2 8.0 0.00 0.00 0.00 34 1004.0
20260503235208 20 215 3.2 8.0 0.00 0.00 0.00 32 1003.9
20260503234932 20 97 4.8 9.7 0.00 0.00 0.00 32 1003.9
20260503234156 20 203 4.8 9.7 0.00 0.00 0.00 31 1003.9
20260503233650 20 167 4.8 9.7 0.00 0.00 0.00 31 1004.0
20260503233144 21 183 6.4 12.9 0.00 0.00 0.00 28 1004.1
20260503232908 21 134 6.4 12.9 0.00 0.00 0.00 28 1004.0
20260503232132 22 251 6.4 14.5 0.00 0.00 0.00 28 1004.1
20260503231625 22 136 6.4 14.5 0.00 0.00 0.00 28 1004.1
20260503231120 22 194 6.4 9.7 0.00 0.00 0.00 27 1004.1
20260503230614 22 225 6.4 9.7 0.00 0.00 0.00 26 1004.2
20260503230108 22 146 8.0 12.9 0.00 0.00 0.00 27 1004.2
20260503225602 22 173 8.0 12.9 0.00 0.00 0.00 27 1004.2
20260503225326 22 205 4.8 12.9 0.00 0.00 0.00 26 1004.3
20260503224550 23 198 3.2 12.9 0.00 0.00 0.00 25 1004.3
20260503224044 23 314 1.6 11.3 0.00 0.00 0.00 27 1004.3
20260503223538 22 216 4.8 11.3 0.00 0.00 0.00 28 1004.4
20260503223032 22 122 6.4 14.5 0.00 0.00 0.00 28 1004.4
20260503222756 22 189 6.4 14.5 0.00 0.00 0.00 27 1004.5
20260503222019 23 127 6.4 12.9 0.00 0.00 0.00 27 1004.4
20260503221513 23 165 4.8 11.3 0.00 0.00 0.00 26 1004.4
20260503221008 23 163 3.2 9.7 0.00 0.00 0.00 27 1004.5
20260503220507 23 186 4.8 16.1 0.00 0.00 0.00 26 1004.5
20260503220501 23 134 4.8 16.1 0.00 0.00 0.00 22 1004.6
20260503215450 23 221 3.2 11.3 0.00 0.00 0.00 29 1004.5
20260503215215 22 56 3.2 9.7 0.00 0.00 0.00 25 1004.7
20260503214438 22 160 1.6 8.0 0.00 0.00 0.00 27 1004.8
20260503214202 22 167 1.6 8.0 0.00 0.00 0.00 24 1004.8
20260503213431 22 92 1.6 9.7 0.00 0.00 0.00 29 1004.9
20260503213425 22 20 1.6 9.7 0.00 0.00 0.00 26 1004.9
20260503212413 22 159 1.6 6.4 0.00 0.00 0.00 24 1004.9
20260503211913 22 342 1.6 8.0 0.00 0.00 0.00 25 1005.1
20260503211908 22 6 1.6 8.0 0.00 0.00 0.00 25 1005.1
20260503210855 22 217 1.6 6.4 0.00 0.00 0.00 30 1005.1
20260503210621 22 32 1.6 6.4 0.00 0.00 0.00 24 1005.2
20260503205843 22 232 1.6 6.4 0.00 0.00 0.00 29 1005.2
20260503205338 22 95 3.2 9.7 0.00 0.00 0.00 26 1005.2
20260503204832 22 72 3.2 16.1 0.00 0.00 0.00 25 1005.4
20260503204331 22 165 1.6 11.3 0.00 0.00 0.00 29 1005.5
20260503204326 22 338 3.2 16.1 0.00 0.00 0.00 24 1005.4
20260503203313 22 134 0.0 8.0 0.00 0.00 0.00 26 1005.7
20260503203038 22 149 0.0 6.4 0.00 0.00 0.00 24 1005.5
20260503202537 22 108 1.6 6.4 0.00 0.00 0.00 27 1005.7
20260503202257 22 342 3.2 11.3 0.00 0.00 0.00 28 1005.8
20260503201250 22 37 3.2 11.3 0.00 0.00 0.00 25 1005.8
20260503200744 22 15 1.6 11.3 0.00 0.00 0.00 26 1005.7
20260503200238 22 165 3.2 11.3 0.00 0.00 0.00 25 1005.8
20260503195732 22 27 1.6 8.0 0.00 0.00 0.00 24 1005.8
20260503195225 22 0 1.6 8.0 0.00 0.00 0.00 26 1005.9
20260503194725 22 108 3.2 12.9 0.00 0.00 0.00 25 1006.0
20260503194214 22 174 3.2 12.9 0.00 0.00 0.00 29 1005.8
20260503193708 22 278 3.2 9.7 0.00 0.00 0.00 25 1005.9
20260503193202 22 354 1.6 9.7 0.00 0.00 0.00 26 1005.9
20260503192701 22 6 1.6 12.9 0.00 0.00 0.00 31 1006.1
20260503192656 22 113 1.6 12.9 0.00 0.00 0.00 29 1006.1
20260503191643 22 354 1.6 11.3 0.00 0.00 0.00 30 1006.3
20260503191408 22 9 1.6 6.4 0.00 0.00 0.00 26 1006.3
20260503190631 22 242 3.2 11.3 0.00 0.00 0.00 32 1006.3
20260503190125 21 179 3.2 12.9 0.00 0.00 0.00 33 1006.2
20260503185620 21 148 3.2 12.9 0.00 0.00 0.00 32 1006.3
20260503185113 21 107 4.8 12.9 0.00 0.00 0.00 33 1006.3
20260503184607 21 211 4.8 12.9 0.00 0.00 0.00 35 1006.4
20260503184101 21 193 3.2 11.3 0.00 0.00 0.00 34 1006.3
20260503183556 21 140 3.2 9.7 0.00 0.00 0.00 40 1006.3
20260503183049 21 24 1.6 9.7 0.00 0.00 0.00 32 1006.2
20260503182544 21 108 3.2 9.7 0.00 0.00 0.00 29 1006.3
20260503182038 21 6 3.2 9.7 0.00 0.00 0.00 28 1006.3
20260503181804 21 356 3.2 8.0 0.00 0.00 0.00 27 1006.3